Zurück zum Katalog

FENGYUN 1C DEB

AktivPO
NORAD 37433·DEBRIS·🇨🇳 China

Gestartet May 10, 1999 von Taiyuan Satellite Launch Center

Loading…

Nächste Überflüge (nächste 24 Stunden)

TLE

AlterndSource: Space-Track

Epoche: Sep 4, 2026, 07:42 UTC

1 37433U 99025EHB 26247.32102672  .00003782  00000-0  17940-2 0  9992
2 37433  98.0897  65.7986 0206536 168.3235 192.2836 14.09453095274738

Verfolge FENGYUN 1C DEB in Echtzeit mit AllMySat

Download on the App Store